Time,TemperatureF,DewpointF,PressureIn,WindDirection,WindDirectionDegrees,WindSpeedMPH,WindSpeedGustMPH,Humidity,HourlyPrecipIn,Conditions,Clouds,dailyrainin,SoftwareType,DateUTC
2013-06-29 00:00:00,60.2,56.9,30.11,NNW,348,1.0,3.0,89,0.00,,,0.00,Wunderground v.1.15,2013-06-29 07:00:00,
2013-06-29 00:05:00,60.2,57.3,30.11,NNW,338,2.0,5.0,90,0.00,,,0.00,Wunderground v.1.15,2013-06-29 07:05:00,
2013-06-29 00:10:00,60.1,57.5,30.11,North,355,2.0,2.0,91,0.00,,,0.00,Wunderground v.1.15,2013-06-29 07:10:00,
2013-06-29 00:15:00,60.0,57.4,30.11,North,5,1.0,3.0,91,0.00,,,0.00,Wunderground v.1.15,2013-06-29 07:15:00,
2013-06-29 00:20:00,60.0,57.7,30.11,NNE,18,2.0,2.0,92,0.00,,,0.00,Wunderground v.1.15,2013-06-29 07:20:00,
2013-06-29 00:25:00,60.0,57.7,30.11,NNE,15,2.0,3.0,92,0.00,,,0.00,Wunderground v.1.15,2013-06-29 07:25:00,
2013-06-29 00:35:00,59.9,57.9,30.11,NW,313,2.0,2.0,93,0.00,,,0.00,Wunderground v.1.15,2013-06-29 07:35:00,
2013-06-29 00:40:00,59.9,57.9,30.12,NNW,347,2.0,2.0,93,0.00,,,0.00,Wunderground v.1.15,2013-06-29 07:40:00,
2013-06-29 00:50:00,60.1,58.1,30.12,North,355,1.0,1.0,93,0.00,,,0.00,Wunderground v.1.15,2013-06-29 07:50:00,
2013-06-29 00:55:00,60.1,58.1,30.11,NW,323,1.0,1.0,93,0.00,,,0.00,Wunderground v.1.15,2013-06-29 07:55:00,
2013-06-29 01:00:00,60.1,58.1,30.12,NW,324,1.0,1.0,93,0.00,,,0.00,Wunderground v.1.15,2013-06-29 08:00:00,
2013-06-29 01:05:00,60.0,58.0,30.12,NNW,341,1.0,1.0,93,0.00,,,0.00,Wunderground v.1.15,2013-06-29 08:05:00,
2013-06-29 01:10:00,60.0,58.0,30.12,NNW,341,1.0,1.0,93,0.00,,,0.00,Wunderground v.1.15,2013-06-29 08:10:00,
2013-06-29 01:15:00,59.8,58.1,30.11,NNW,346,0.0,1.0,94,0.00,,,0.00,Wunderground v.1.15,2013-06-29 08:15:00,
2013-06-29 01:20:00,59.8,58.1,30.12,NW,321,1.0,3.0,94,0.00,,,0.00,Wunderground v.1.15,2013-06-29 08:20:00,
2013-06-29 01:25:00,60.0,58.3,30.11,NNW,347,1.0,3.0,94,0.00,,,0.00,Wunderground v.1.15,2013-06-29 08:25:00,
2013-06-29 01:30:00,60.0,58.3,30.11,NNW,348,1.0,1.0,94,0.00,,,0.00,Wunderground v.1.15,2013-06-29 08:30:00,
2013-06-29 01:35:00,60.0,58.3,30.12,NNW,348,1.0,1.0,94,0.00,,,0.00,Wunderground v.1.15,2013-06-29 08:35:00,
2013-06-29 01:40:00,60.0,58.3,30.11,NNW,348,0.0,0.0,94,0.00,,,0.00,Wunderground v.1.15,2013-06-29 08:40:00,
2013-06-29 01:45:00,60.1,58.4,30.11,NNW,348,0.0,0.0,94,0.00,,,0.00,Wunderground v.1.15,2013-06-29 08:45:00,
2013-06-29 01:50:00,60.3,58.6,30.11,NNW,348,0.0,0.0,94,0.00,,,0.00,Wunderground v.1.15,2013-06-29 08:50:00,
2013-06-29 01:55:00,60.3,58.6,30.11,NNW,348,0.0,0.0,94,0.00,,,0.00,Wunderground v.1.15,2013-06-29 08:55:00,
2013-06-29 02:00:00,60.2,58.5,30.10,NNW,348,0.0,0.0,94,0.00,,,0.00,Wunderground v.1.15,2013-06-29 09:00:00,
2013-06-29 02:05:00,60.2,58.5,30.11,NNW,348,0.0,0.0,94,0.00,,,0.00,Wunderground v.1.15,2013-06-29 09:05:00,
2013-06-29 02:10:00,60.1,58.4,30.10,NNW,348,0.0,0.0,94,0.00,,,0.00,Wunderground v.1.15,2013-06-29 09:10:00,
2013-06-29 02:15:00,60.1,58.4,30.11,NNW,348,0.0,0.0,94,0.00,,,0.00,Wunderground v.1.15,2013-06-29 09:15:00,
2013-06-29 02:20:00,60.0,58.3,30.11,NNW,348,0.0,0.0,94,0.00,,,0.00,Wunderground v.1.15,2013-06-29 09:20:00,
2013-06-29 02:25:00,60.0,58.3,30.11,NNW,348,0.0,0.0,94,0.00,,,0.00,Wunderground v.1.15,2013-06-29 09:25:00,
2013-06-29 02:30:00,59.9,58.2,30.11,NNW,348,0.0,0.0,94,0.00,,,0.00,Wunderground v.1.15,2013-06-29 09:30:00,
2013-06-29 02:35:00,59.9,58.2,30.11,NNW,348,0.0,0.0,94,0.00,,,0.00,Wunderground v.1.15,2013-06-29 09:35:00,
2013-06-29 02:40:00,59.9,58.2,30.10,NNW,348,0.0,0.0,94,0.00,,,0.00,Wunderground v.1.15,2013-06-29 09:40:00,
2013-06-29 02:45:00,60.0,58.3,30.11,NNW,348,0.0,0.0,94,0.00,,,0.00,Wunderground v.1.15,2013-06-29 09:45:00,
2013-06-29 02:50:00,60.1,58.7,30.10,NNW,348,0.0,0.0,95,0.00,,,0.00,Wunderground v.1.15,2013-06-29 09:50:00,
2013-06-29 02:55:00,60.1,58.7,30.11,West,281,1.0,2.0,95,0.00,,,0.00,Wunderground v.1.15,2013-06-29 09:55:00,
2013-06-29 03:00:00,59.9,58.2,30.11,West,279,2.0,2.0,94,0.00,,,0.00,Wunderground v.1.15,2013-06-29 10:00:00,
2013-06-29 03:05:00,59.8,58.1,30.11,West,279,1.0,2.0,94,0.00,,,0.00,Wunderground v.1.15,2013-06-29 10:05:00,
2013-06-29 03:10:00,59.7,58.0,30.10,West,279,0.0,0.0,94,0.00,,,0.00,Wunderground v.1.15,2013-06-29 10:10:00,
2013-06-29 03:15:00,59.6,57.9,30.10,West,279,0.0,0.0,94,0.00,,,0.00,Wunderground v.1.15,2013-06-29 10:15:00,
2013-06-29 03:20:00,59.6,57.9,30.10,North,5,0.0,2.0,94,0.00,,,0.00,Wunderground v.1.15,2013-06-29 10:20:00,
2013-06-29 03:25:00,59.3,57.6,30.10,NE,46,1.0,2.0,94,0.00,,,0.00,Wunderground v.1.15,2013-06-29 10:25:00,
2013-06-29 03:30:00,59.1,57.4,30.10,NE,46,1.0,1.0,94,0.00,,,0.00,Wunderground v.1.15,2013-06-29 10:30:00,
2013-06-29 03:35:00,59.1,57.4,30.11,NE,46,0.0,1.0,94,0.00,,,0.00,Wunderground v.1.15,2013-06-29 10:35:00,
2013-06-29 03:40:00,59.2,57.8,30.11,NE,46,0.0,1.0,95,0.00,,,0.00,Wunderground v.1.15,2013-06-29 10:40:00,
2013-06-29 03:45:00,59.4,58.0,30.12,NE,46,0.0,1.0,95,0.00,,,0.00,Wunderground v.1.15,2013-06-29 10:45:00,
2013-06-29 03:50:00,59.3,57.9,30.11,NE,51,1.0,1.0,95,0.00,,,0.00,Wunderground v.1.15,2013-06-29 10:50:00,
2013-06-29 03:55:00,59.2,57.8,30.11,NE,45,1.0,1.0,95,0.00,,,0.00,Wunderground v.1.15,2013-06-29 10:55:00,
2013-06-29 04:00:00,59.1,57.7,30.12,NE,45,0.0,0.0,95,0.00,,,0.00,Wunderground v.1.15,2013-06-29 11:00:00,
2013-06-29 04:05:00,59.0,57.6,30.12,NE,45,0.0,0.0,95,0.00,,,0.00,Wunderground v.1.15,2013-06-29 11:05:00,
2013-06-29 04:10:00,58.9,57.5,30.12,NE,45,0.0,0.0,95,0.00,,,0.00,Wunderground v.1.15,2013-06-29 11:10:00,
2013-06-29 04:15:00,58.8,57.4,30.12,NE,45,0.0,0.0,95,0.00,,,0.00,Wunderground v.1.15,2013-06-29 11:15:00,
2013-06-29 04:20:00,58.7,57.3,30.12,NE,45,0.0,0.0,95,0.00,,,0.00,Wunderground v.1.15,2013-06-29 11:20:00,
2013-06-29 04:25:00,58.7,57.3,30.11,NE,45,0.0,0.0,95,0.00,,,0.00,Wunderground v.1.15,2013-06-29 11:25:00,
2013-06-29 04:30:00,58.7,57.3,30.11,NE,45,0.0,0.0,95,0.00,,,0.00,Wunderground v.1.15,2013-06-29 11:30:00,
2013-06-29 04:35:00,58.7,57.3,30.11,NE,45,0.0,0.0,95,0.00,,,0.00,Wunderground v.1.15,2013-06-29 11:35:00,
2013-06-29 04:40:00,58.7,57.3,30.10,NE,45,0.0,0.0,95,0.00,,,0.00,Wunderground v.1.15,2013-06-29 11:40:00,
2013-06-29 04:45:00,58.7,57.3,30.11,NE,45,0.0,0.0,95,0.00,,,0.00,Wunderground v.1.15,2013-06-29 11:45:00,
2013-06-29 04:50:00,58.7,57.3,30.11,NW,307,0.0,2.0,95,0.00,,,0.00,Wunderground v.1.15,2013-06-29 11:50:00,
2013-06-29 04:55:00,58.8,57.4,30.11,NW,304,1.0,2.0,95,0.00,,,0.00,Wunderground v.1.15,2013-06-29 11:55:00,
2013-06-29 05:00:00,59.0,57.6,30.11,NW,305,1.0,1.0,95,0.00,,,0.00,Wunderground v.1.15,2013-06-29 12:00:00,
2013-06-29 05:05:00,58.9,57.5,30.11,NNW,344,1.0,1.0,95,0.00,,,0.00,Wunderground v.1.15,2013-06-29 12:05:00,
2013-06-29 05:10:00,58.7,57.3,30.11,NNW,344,0.0,0.0,95,0.00,,,0.00,Wunderground v.1.15,2013-06-29 12:10:00,
2013-06-29 05:15:00,58.8,57.4,30.11,NW,314,1.0,1.0,95,0.00,,,0.00,Wunderground v.1.15,2013-06-29 12:15:00,
2013-06-29 05:20:00,58.8,57.4,30.11,NW,319,2.0,2.0,95,0.00,,,0.00,Wunderground v.1.15,2013-06-29 12:20:00,
2013-06-29 05:25:00,58.7,57.0,30.10,NW,315,1.0,2.0,94,0.00,,,0.00,Wunderground v.1.15,2013-06-29 12:25:00,
2013-06-29 05:30:00,58.6,56.9,30.10,NW,315,1.0,1.0,94,0.00,,,0.00,Wunderground v.1.15,2013-06-29 12:30:00,
2013-06-29 05:35:00,58.6,56.9,30.10,NW,315,1.0,1.0,94,0.00,,,0.00,Wunderground v.1.15,2013-06-29 12:35:00,
2013-06-29 05:40:00,58.5,56.8,30.10,NW,315,0.0,0.0,94,0.00,,,0.00,Wunderground v.1.15,2013-06-29 12:40:00,
2013-06-29 05:45:00,58.5,56.8,30.10,NW,315,0.0,0.0,94,0.00,,,0.00,Wunderground v.1.15,2013-06-29 12:45:00,
2013-06-29 05:50:00,58.4,56.7,30.11,NW,315,0.0,0.0,94,0.00,,,0.00,Wunderground v.1.15,2013-06-29 12:50:00,
2013-06-29 05:55:00,58.2,56.5,30.11,NW,315,0.0,0.0,94,0.00,,,0.00,Wunderground v.1.15,2013-06-29 12:55:00,
2013-06-29 06:00:00,58.2,56.5,30.11,NW,315,0.0,0.0,94,0.00,,,0.00,Wunderground v.1.15,2013-06-29 13:00:00,
2013-06-29 06:05:00,58.2,56.5,30.11,NW,316,0.0,0.0,94,0.00,,,0.00,Wunderground v.1.15,2013-06-29 13:05:00,
2013-06-29 06:10:00,58.0,56.3,30.11,NNW,342,0.0,0.0,94,0.00,,,0.00,Wunderground v.1.15,2013-06-29 13:10:00,
2013-06-29 06:15:00,57.9,56.2,30.10,NNW,343,0.0,0.0,94,0.00,,,0.00,Wunderground v.1.15,2013-06-29 13:15:00,
2013-06-29 06:20:00,57.9,56.2,30.10,NNW,344,0.0,2.0,94,0.00,,,0.00,Wunderground v.1.15,2013-06-29 13:20:00,
2013-06-29 06:25:00,58.0,56.6,30.10,NNW,329,1.0,3.0,95,0.00,,,0.00,Wunderground v.1.15,2013-06-29 13:25:00,
2013-06-29 06:30:00,58.3,56.9,30.10,NW,319,2.0,2.0,95,0.00,,,0.00,Wunderground v.1.15,2013-06-29 13:30:00,
2013-06-29 06:35:00,58.7,57.3,30.10,WNW,300,2.0,2.0,95,0.00,,,0.00,Wunderground v.1.15,2013-06-29 13:35:00,
2013-06-29 06:40:00,59.0,57.6,30.10,NW,309,2.0,2.0,95,0.00,,,0.00,Wunderground v.1.15,2013-06-29 13:40:00,
2013-06-29 06:45:00,59.2,57.8,30.10,NNW,327,1.0,2.0,95,0.00,,,0.00,Wunderground v.1.15,2013-06-29 13:45:00,
2013-06-29 06:50:00,59.4,58.0,30.10,NNE,12,1.0,3.0,95,0.00,,,0.00,Wunderground v.1.15,2013-06-29 13:50:00,
2013-06-29 06:55:00,59.8,58.4,30.10,NNE,17,1.0,3.0,95,0.00,,,0.00,Wunderground v.1.15,2013-06-29 13:55:00,
2013-06-29 07:00:00,60.1,58.7,30.10,NNE,22,1.0,3.0,95,0.00,,,0.00,Wunderground v.1.15,2013-06-29 14:00:00,
2013-06-29 07:05:00,60.4,59.0,30.10,NE,38,2.0,4.0,95,0.00,,,0.00,Wunderground v.1.15,2013-06-29 14:05:00,
2013-06-29 07:10:00,60.4,58.7,30.10,NNE,17,3.0,3.0,94,0.00,,,0.00,Wunderground v.1.15,2013-06-29 14:10:00,
2013-06-29 07:15:00,60.6,58.9,30.10,NNE,19,2.0,3.0,94,0.00,,,0.00,Wunderground v.1.15,2013-06-29 14:15:00,
2013-06-29 07:20:00,60.6,58.9,30.10,North,355,1.0,3.0,94,0.00,,,0.00,Wunderground v.1.15,2013-06-29 14:20:00,
2013-06-29 07:25:00,60.6,58.9,30.10,NNE,14,2.0,3.0,94,0.00,,,0.00,Wunderground v.1.15,2013-06-29 14:25:00,
2013-06-29 07:35:00,60.5,58.5,30.10,North,355,1.0,2.0,93,0.00,,,0.00,Wunderground v.1.15,2013-06-29 14:35:00,
2013-06-29 07:40:00,60.6,58.9,30.10,NNW,340,2.0,2.0,94,0.00,,,0.00,Wunderground v.1.15,2013-06-29 14:40:00,
2013-06-29 07:50:00,60.8,59.1,30.10,NNW,333,2.0,2.0,94,0.00,,,0.00,Wunderground v.1.15,2013-06-29 14:50:00,
2013-06-29 07:55:00,60.9,58.9,30.10,NNE,32,2.0,3.0,93,0.00,,,0.00,Wunderground v.1.15,2013-06-29 14:55:00,
2013-06-29 08:00:00,60.9,58.9,30.10,North,360,2.0,2.0,93,0.00,,,0.00,Wunderground v.1.15,2013-06-29 15:00:00,
2013-06-29 08:05:00,61.1,59.1,30.10,NNW,342,2.0,3.0,93,0.00,,,0.00,Wunderground v.1.15,2013-06-29 15:05:00,
2013-06-29 08:10:00,61.3,59.3,30.10,NNE,13,2.0,2.0,93,0.00,,,0.00,Wunderground v.1.15,2013-06-29 15:10:00,
2013-06-29 08:15:00,61.5,59.5,30.10,NE,36,1.0,2.0,93,0.00,,,0.00,Wunderground v.1.15,2013-06-29 15:15:00,
2013-06-29 08:20:00,61.6,59.3,30.10,North,355,2.0,2.0,92,0.00,,,0.00,Wunderground v.1.15,2013-06-29 15:20:00,
2013-06-29 08:25:00,61.8,59.5,30.10,NNW,347,2.0,2.0,92,0.00,,,0.00,Wunderground v.1.15,2013-06-29 15:25:00,
2013-06-29 08:30:00,61.9,59.5,30.10,NNW,333,1.0,1.0,92,0.00,,,0.00,Wunderground v.1.15,2013-06-29 15:30:00,
2013-06-29 08:35:00,62.2,59.8,30.10,WNW,300,1.0,2.0,92,0.00,,,0.00,Wunderground v.1.15,2013-06-29 15:35:00,
2013-06-29 08:40:00,62.5,59.8,30.10,NNW,327,1.0,4.0,91,0.00,,,0.00,Wunderground v.1.15,2013-06-29 15:40:00,
2013-06-29 08:45:00,62.6,59.9,30.10,NNW,328,1.0,4.0,91,0.00,,,0.00,Wunderground v.1.15,2013-06-29 15:45:00,
2013-06-29 08:55:00,62.3,59.3,30.10,NW,323,2.0,2.0,90,0.00,,,0.00,Wunderground v.1.15,2013-06-29 15:55:00,
2013-06-29 09:00:00,62.6,59.9,30.10,NNE,13,1.0,1.0,91,0.00,,,0.00,Wunderground v.1.15,2013-06-29 16:00:00,
2013-06-29 09:05:00,62.9,59.9,30.10,NW,326,2.0,2.0,90,0.00,,,0.00,Wunderground v.1.15,2013-06-29 16:05:00,
2013-06-29 09:15:00,63.5,60.5,30.10,North,355,2.0,4.0,90,0.00,,,0.00,Wunderground v.1.15,2013-06-29 16:15:00,
2013-06-29 09:20:00,63.7,60.4,30.10,NNW,336,1.0,1.0,89,0.00,,,0.00,Wunderground v.1.15,2013-06-29 16:20:00,
2013-06-29 09:25:00,63.8,60.5,30.10,NNW,333,1.0,1.0,89,0.00,,,0.00,Wunderground v.1.15,2013-06-29 16:25:00,
2013-06-29 09:30:00,64.0,60.7,30.10,NNE,19,1.0,4.0,89,0.00,,,0.00,Wunderground v.1.15,2013-06-29 16:30:00,
2013-06-29 09:35:00,64.4,60.8,30.10,NNW,329,2.0,4.0,88,0.00,,,0.00,Wunderground v.1.15,2013-06-29 16:35:00,
2013-06-29 09:40:00,64.5,60.5,30.10,NNE,12,2.0,4.0,87,0.00,,,0.00,Wunderground v.1.15,2013-06-29 16:40:00,
2013-06-29 09:45:00,64.8,60.8,30.10,NNE,17,2.0,4.0,87,0.00,,,0.00,Wunderground v.1.15,2013-06-29 16:45:00,
2013-06-29 09:50:00,65.4,61.4,30.10,NNE,16,2.0,2.0,87,0.00,,,0.00,Wunderground v.1.15,2013-06-29 16:50:00,
2013-06-29 09:55:00,65.7,61.1,30.10,NNE,27,2.0,4.0,85,0.00,,,0.00,Wunderground v.1.15,2013-06-29 16:55:00,
2013-06-29 10:00:00,65.9,61.3,30.11,NNW,340,2.0,3.0,85,0.00,,,0.00,Wunderground v.1.15,2013-06-29 17:00:00,
2013-06-29 10:05:00,66.3,61.7,30.10,NE,38,2.0,3.0,85,0.00,,,0.00,Wunderground v.1.15,2013-06-29 17:05:00,
2013-06-29 10:10:00,66.7,61.7,30.11,North,355,2.0,2.0,84,0.00,,,0.00,Wunderground v.1.15,2013-06-29 17:10:00,
2013-06-29 10:15:00,66.9,61.2,30.11,North,9,3.0,6.0,82,0.00,,,0.00,Wunderground v.1.15,2013-06-29 17:15:00,
2013-06-29 10:20:00,67.2,61.9,30.11,NNE,32,4.0,4.0,83,0.00,,,0.00,Wunderground v.1.15,2013-06-29 17:20:00,
2013-06-29 10:25:00,67.3,61.6,30.11,NNE,22,4.0,7.0,82,0.00,,,0.00,Wunderground v.1.15,2013-06-29 17:25:00,
2013-06-29 10:30:00,67.6,61.6,30.11,NNE,32,3.0,3.0,81,0.00,,,0.00,Wunderground v.1.15,2013-06-29 17:30:00,
2013-06-29 10:35:00,67.9,62.2,30.11,NE,55,4.0,4.0,82,0.00,,,0.00,Wunderground v.1.15,2013-06-29 17:35:00,
2013-06-29 10:40:00,68.0,61.6,30.11,North,355,4.0,5.0,80,0.00,,,0.00,Wunderground v.1.15,2013-06-29 17:40:00,
2013-06-29 10:45:00,68.2,61.4,30.10,NNE,19,4.0,6.0,79,0.00,,,0.00,Wunderground v.1.15,2013-06-29 17:45:00,
2013-06-29 10:50:00,68.4,60.9,30.10,North,360,4.0,4.0,77,0.00,,,0.00,Wunderground v.1.15,2013-06-29 17:50:00,
2013-06-29 10:55:00,68.8,60.9,30.10,NW,317,3.0,4.0,76,0.00,,,0.00,Wunderground v.1.15,2013-06-29 17:55:00,
2013-06-29 11:00:00,68.8,59.0,30.11,NW,314,3.0,3.0,71,0.00,,,0.00,Wunderground v.1.15,2013-06-29 18:00:00,
2013-06-29 11:05:00,69.1,59.3,30.11,NW,324,3.0,4.0,71,0.00,,,0.00,Wunderground v.1.15,2013-06-29 18:05:00,
2013-06-29 11:10:00,69.3,60.7,30.10,NNE,28,3.0,3.0,74,0.00,,,0.00,Wunderground v.1.15,2013-06-29 18:10:00,
2013-06-29 11:20:00,69.5,60.1,30.10,North,360,4.0,5.0,72,0.00,,,0.00,Wunderground v.1.15,2013-06-29 18:20:00,
2013-06-29 11:25:00,69.7,59.1,30.10,NNW,331,4.0,5.0,69,0.00,,,0.00,Wunderground v.1.15,2013-06-29 18:25:00,
2013-06-29 11:30:00,70.0,59.8,30.10,North,355,3.0,3.0,70,0.00,,,0.00,Wunderground v.1.15,2013-06-29 18:30:00,
2013-06-29 11:35:00,70.1,59.9,30.10,NNW,327,3.0,5.0,70,0.00,,,0.00,Wunderground v.1.15,2013-06-29 18:35:00,
2013-06-29 11:40:00,70.5,60.2,30.10,NNE,24,3.0,6.0,70,0.00,,,0.00,Wunderground v.1.15,2013-06-29 18:40:00,
2013-06-29 11:45:00,70.6,59.9,30.09,NNW,340,3.0,6.0,69,0.00,,,0.00,Wunderground v.1.15,2013-06-29 18:45:00,
2013-06-29 11:50:00,70.7,59.6,30.09,NNE,17,3.0,3.0,68,0.00,,,0.00,Wunderground v.1.15,2013-06-29 18:50:00,
2013-06-29 11:55:00,71.1,59.6,30.09,NW,312,3.0,5.0,67,0.00,,,0.00,Wunderground v.1.15,2013-06-29 18:55:00,
2013-06-29 12:05:00,71.2,58.8,30.09,WNW,302,3.0,4.0,65,0.00,,,0.00,Wunderground v.1.15,2013-06-29 19:05:00,
2013-06-29 12:10:00,70.6,58.7,30.09,West,275,3.0,4.0,66,0.00,,,0.00,Wunderground v.1.15,2013-06-29 19:10:00,
2013-06-29 12:15:00,70.3,59.2,30.09,West,278,3.0,4.0,68,0.00,,,0.00,Wunderground v.1.15,2013-06-29 19:15:00,
2013-06-29 12:20:00,70.6,59.5,30.09,WNW,285,3.0,3.0,68,0.00,,,0.00,Wunderground v.1.15,2013-06-29 19:20:00,
2013-06-29 12:25:00,70.4,58.9,30.09,WNW,283,3.0,3.0,67,0.00,,,0.00,Wunderground v.1.15,2013-06-29 19:25:00,
2013-06-29 12:30:00,70.2,59.6,30.08,West,269,3.0,3.0,69,0.00,,,0.00,Wunderground v.1.15,2013-06-29 19:30:00,
2013-06-29 12:35:00,69.9,59.3,30.08,West,267,3.0,3.0,69,0.00,,,0.00,Wunderground v.1.15,2013-06-29 19:35:00,
2013-06-29 12:40:00,69.8,59.2,30.08,West,267,3.0,3.0,69,0.00,,,0.00,Wunderground v.1.15,2013-06-29 19:40:00,
2013-06-29 12:45:00,69.8,59.2,30.08,West,267,3.0,3.0,69,0.00,,,0.00,Wunderground v.1.15,2013-06-29 19:45:00,
2013-06-29 12:50:00,69.9,59.7,30.08,West,267,3.0,3.0,70,0.00,,,0.00,Wunderground v.1.15,2013-06-29 19:50:00,
2013-06-29 12:55:00,69.9,59.3,30.07,West,266,3.0,4.0,69,0.00,,,0.00,Wunderground v.1.15,2013-06-29 19:55:00,
2013-06-29 13:00:00,69.9,59.7,30.08,West,263,4.0,4.0,70,0.00,,,0.00,Wunderground v.1.15,2013-06-29 20:00:00,
2013-06-29 13:05:00,70.0,59.8,30.07,West,261,4.0,4.0,70,0.00,,,0.00,Wunderground v.1.15,2013-06-29 20:05:00,
2013-06-29 13:10:00,70.2,60.4,30.07,West,273,3.0,3.0,71,0.00,,,0.00,Wunderground v.1.15,2013-06-29 20:10:00,
2013-06-29 13:15:00,70.0,59.8,30.07,West,275,3.0,3.0,70,0.00,,,0.00,Wunderground v.1.15,2013-06-29 20:15:00,
2013-06-29 13:20:00,70.0,60.2,30.07,West,274,4.0,5.0,71,0.00,,,0.00,Wunderground v.1.15,2013-06-29 20:20:00,
2013-06-29 13:25:00,70.3,60.4,30.06,WNW,302,4.0,5.0,71,0.00,,,0.00,Wunderground v.1.15,2013-06-29 20:25:00,
2013-06-29 13:30:00,71.6,59.6,30.06,West,280,4.0,4.0,66,0.00,,,0.00,Wunderground v.1.15,2013-06-29 20:30:00,
2013-06-29 13:35:00,73.3,59.9,30.06,NW,315,4.0,4.0,63,0.00,,,0.00,Wunderground v.1.15,2013-06-29 20:35:00,
2013-06-29 13:40:00,74.7,60.4,30.06,West,280,4.0,4.0,61,0.00,,,0.00,Wunderground v.1.15,2013-06-29 20:40:00,
2013-06-29 13:45:00,75.2,59.9,30.06,West,279,4.0,4.0,59,0.00,,,0.00,Wunderground v.1.15,2013-06-29 20:45:00,
2013-06-29 13:50:00,75.2,58.4,30.06,West,276,3.0,5.0,56,0.00,,,0.00,Wunderground v.1.15,2013-06-29 20:50:00,
2013-06-29 13:55:00,75.5,59.7,30.06,West,280,3.0,5.0,58,0.00,,,0.00,Wunderground v.1.15,2013-06-29 20:55:00,
2013-06-29 14:05:00,76.0,61.1,30.06,WNW,294,4.0,4.0,60,0.00,,,0.00,Wunderground v.1.15,2013-06-29 21:05:00,
2013-06-29 14:10:00,76.5,63.0,30.05,WNW,283,4.0,4.0,63,0.00,,,0.00,Wunderground v.1.15,2013-06-29 21:10:00,
2013-06-29 14:20:00,77.0,62.0,30.05,NW,309,4.0,4.0,60,0.00,,,0.00,Wunderground v.1.15,2013-06-29 21:20:00,
2013-06-29 14:25:00,76.9,61.5,30.05,WNW,300,4.0,5.0,59,0.00,,,0.00,Wunderground v.1.15,2013-06-29 21:25:00,
2013-06-29 14:30:00,77.2,62.2,30.05,WNW,284,3.0,5.0,60,0.00,,,0.00,Wunderground v.1.15,2013-06-29 21:30:00,
2013-06-29 14:35:00,77.6,62.1,30.04,NNW,328,3.0,7.0,59,0.00,,,0.00,Wunderground v.1.15,2013-06-29 21:35:00,
2013-06-29 14:40:00,78.1,62.6,30.04,West,279,3.0,3.0,59,0.00,,,0.00,Wunderground v.1.15,2013-06-29 21:40:00,
2013-06-29 14:45:00,78.3,61.8,30.04,NW,324,3.0,4.0,57,0.00,,,0.00,Wunderground v.1.15,2013-06-29 21:45:00,
2013-06-29 14:50:00,78.4,59.9,30.04,ENE,59,4.0,4.0,53,0.00,,,0.00,Wunderground v.1.15,2013-06-29 21:50:00,
2013-06-29 15:00:00,78.8,61.8,30.04,NW,305,3.0,5.0,56,0.00,,,0.00,Wunderground v.1.15,2013-06-29 22:00:00,
2013-06-29 15:05:00,78.7,61.2,30.04,NW,318,4.0,5.0,55,0.00,,,0.00,Wunderground v.1.15,2013-06-29 22:05:00,
2013-06-29 15:10:00,78.4,62.4,30.04,WNW,295,4.0,5.0,58,0.00,,,0.00,Wunderground v.1.15,2013-06-29 22:10:00,
2013-06-29 15:15:00,78.7,62.2,30.04,NW,321,4.0,5.0,57,0.00,,,0.00,Wunderground v.1.15,2013-06-29 22:15:00,
2013-06-29 15:20:00,79.1,61.0,30.04,WNW,292,4.0,6.0,54,0.00,,,0.00,Wunderground v.1.15,2013-06-29 22:20:00,
2013-06-29 15:25:00,78.8,61.3,30.04,WNW,292,4.0,6.0,55,0.00,,,0.00,Wunderground v.1.15,2013-06-29 22:25:00,
2013-06-29 15:30:00,78.3,60.8,30.04,WNW,284,5.0,7.0,55,0.00,,,0.00,Wunderground v.1.15,2013-06-29 22:30:00,
2013-06-29 15:35:00,78.5,61.0,30.03,NW,325,5.0,7.0,55,0.00,,,0.00,Wunderground v.1.15,2013-06-29 22:35:00,
2013-06-29 15:40:00,78.0,60.5,30.04,West,275,5.0,5.0,55,0.00,,,0.00,Wunderground v.1.15,2013-06-29 22:40:00,
2013-06-29 15:50:00,75.8,60.9,30.04,WNW,284,8.0,8.0,60,0.00,,,0.00,Wunderground v.1.15,2013-06-29 22:50:00,
2013-06-29 15:55:00,76.1,61.2,30.03,WNW,294,8.0,8.0,60,0.00,,,0.00,Wunderground v.1.15,2013-06-29 22:55:00,
2013-06-29 16:00:00,75.5,61.1,30.03,WNW,284,7.0,7.0,61,0.00,,,0.00,Wunderground v.1.15,2013-06-29 23:00:00,
2013-06-29 16:05:00,74.6,61.2,30.03,WNW,282,7.0,8.0,63,0.00,,,0.00,Wunderground v.1.15,2013-06-29 23:05:00,
2013-06-29 16:10:00,75.6,61.7,30.04,WNW,295,7.0,8.0,62,0.00,,,0.00,Wunderground v.1.15,2013-06-29 23:10:00,
2013-06-29 16:15:00,75.7,61.3,30.03,West,279,7.0,8.0,61,0.00,,,0.00,Wunderground v.1.15,2013-06-29 23:15:00,
2013-06-29 16:20:00,75.3,60.9,30.03,WNW,295,8.0,8.0,61,0.00,,,0.00,Wunderground v.1.15,2013-06-29 23:20:00,
2013-06-29 16:25:00,75.8,61.4,30.03,WNW,298,7.0,8.0,61,0.00,,,0.00,Wunderground v.1.15,2013-06-29 23:25:00,
2013-06-29 16:30:00,76.3,61.4,30.03,WNW,294,6.0,6.0,60,0.00,,,0.00,Wunderground v.1.15,2013-06-29 23:30:00,
2013-06-29 16:35:00,75.9,62.4,30.03,WNW,289,6.0,8.0,63,0.00,,,0.00,Wunderground v.1.15,2013-06-29 23:35:00,
2013-06-29 16:40:00,75.9,62.4,30.03,WNW,288,7.0,8.0,63,0.00,,,0.00,Wunderground v.1.15,2013-06-29 23:40:00,
2013-06-29 16:45:00,76.1,62.6,30.03,NW,323,7.0,8.0,63,0.00,,,0.00,Wunderground v.1.15,2013-06-29 23:45:00,
2013-06-29 16:50:00,76.0,62.5,30.03,WNW,294,7.0,7.0,63,0.00,,,0.00,Wunderground v.1.15,2013-06-29 23:50:00,
2013-06-29 16:55:00,76.3,62.8,30.02,WNW,300,6.0,7.0,63,0.00,,,0.00,Wunderground v.1.15,2013-06-29 23:55:00,
2013-06-29 17:05:00,76.8,62.3,30.02,WNW,284,6.0,8.0,61,0.00,,,0.00,Wunderground v.1.15,2013-06-30 00:05:00,
2013-06-29 17:10:00,76.6,62.1,30.03,WNW,300,6.0,6.0,61,0.00,,,0.00,Wunderground v.1.15,2013-06-30 00:10:00,
2013-06-29 17:15:00,76.4,62.4,30.03,WNW,298,7.0,7.0,62,0.00,,,0.00,Wunderground v.1.15,2013-06-30 00:15:00,
2013-06-29 17:25:00,76.0,62.5,30.03,NW,320,6.0,8.0,63,0.00,,,0.00,Wunderground v.1.15,2013-06-30 00:25:00,
2013-06-29 17:30:00,75.8,61.8,30.02,WNW,287,7.0,8.0,62,0.00,,,0.00,Wunderground v.1.15,2013-06-30 00:30:00,
2013-06-29 17:35:00,74.5,62.0,30.02,WNW,291,7.0,8.0,65,0.00,,,0.00,Wunderground v.1.15,2013-06-30 00:35:00,
2013-06-29 17:40:00,74.5,62.4,30.02,WNW,292,7.0,7.0,66,0.00,,,0.00,Wunderground v.1.15,2013-06-30 00:40:00,
2013-06-29 17:45:00,75.1,62.5,30.02,West,279,6.0,7.0,65,0.00,,,0.00,Wunderground v.1.15,2013-06-30 00:45:00,
2013-06-29 17:50:00,75.5,62.5,30.01,WNW,288,6.0,6.0,64,0.00,,,0.00,Wunderground v.1.15,2013-06-30 00:50:00,
2013-06-29 17:55:00,75.2,62.6,30.01,WNW,285,6.0,6.0,65,0.00,,,0.00,Wunderground v.1.15,2013-06-30 00:55:00,
2013-06-29 18:00:00,74.9,62.8,30.01,WNW,292,6.0,7.0,66,0.00,,,0.00,Wunderground v.1.15,2013-06-30 01:00:00,
2013-06-29 18:05:00,74.5,62.8,30.01,WNW,284,7.0,8.0,67,0.00,,,0.00,Wunderground v.1.15,2013-06-30 01:05:00,
2013-06-29 18:10:00,74.5,62.8,30.01,WNW,289,7.0,7.0,67,0.00,,,0.00,Wunderground v.1.15,2013-06-30 01:10:00,
2013-06-29 18:15:00,74.5,62.8,30.01,WNW,291,7.0,7.0,67,0.00,,,0.00,Wunderground v.1.15,2013-06-30 01:15:00,
2013-06-29 18:20:00,74.8,63.1,30.01,WNW,290,6.0,6.0,67,0.00,,,0.00,Wunderground v.1.15,2013-06-30 01:20:00,
2013-06-29 18:25:00,75.3,63.2,30.01,WNW,288,6.0,8.0,66,0.00,,,0.00,Wunderground v.1.15,2013-06-30 01:25:00,
2013-06-29 18:30:00,75.3,62.7,30.01,WNW,302,6.0,6.0,65,0.00,,,0.00,Wunderground v.1.15,2013-06-30 01:30:00,
2013-06-29 18:35:00,75.0,62.4,30.01,NW,305,6.0,7.0,65,0.00,,,0.00,Wunderground v.1.15,2013-06-30 01:35:00,
2013-06-29 18:40:00,74.9,62.8,30.01,WNW,292,7.0,7.0,66,0.00,,,0.00,Wunderground v.1.15,2013-06-30 01:40:00,
2013-06-29 18:45:00,75.0,62.4,30.01,NW,315,6.0,7.0,65,0.00,,,0.00,Wunderground v.1.15,2013-06-30 01:45:00,
2013-06-29 18:55:00,75.5,62.9,30.00,NW,314,4.0,5.0,65,0.00,,,0.00,Wunderground v.1.15,2013-06-30 01:55:00,
2013-06-29 19:00:00,76.0,64.2,30.00,NNE,31,3.0,3.0,67,0.00,,,0.00,Wunderground v.1.15,2013-06-30 02:00:00,
2013-06-29 19:05:00,76.0,63.8,30.00,North,5,3.0,3.0,66,0.00,,,0.00,Wunderground v.1.15,2013-06-30 02:05:00,
2013-06-29 19:10:00,76.0,64.2,30.00,NNE,19,3.0,3.0,67,0.00,,,0.00,Wunderground v.1.15,2013-06-30 02:10:00,
2013-06-29 19:20:00,75.2,63.9,30.00,North,355,2.0,2.0,68,0.00,,,0.00,Wunderground v.1.15,2013-06-30 02:20:00,
2013-06-29 19:25:00,74.7,63.9,30.00,NW,319,2.0,2.0,69,0.00,,,0.00,Wunderground v.1.15,2013-06-30 02:25:00,
2013-06-29 19:30:00,74.2,63.8,30.00,WNW,300,2.0,2.0,70,0.00,,,0.00,Wunderground v.1.15,2013-06-30 02:30:00,
2013-06-29 19:35:00,74.0,63.6,30.00,North,360,2.0,2.0,70,0.00,,,0.00,Wunderground v.1.15,2013-06-30 02:35:00,
2013-06-29 19:40:00,73.7,63.3,30.00,NNW,339,2.0,2.0,70,0.00,,,0.00,Wunderground v.1.15,2013-06-30 02:40:00,
2013-06-29 19:45:00,73.6,63.6,30.00,North,355,2.0,2.0,71,0.00,,,0.00,Wunderground v.1.15,2013-06-30 02:45:00,
2013-06-29 19:50:00,73.5,63.1,30.00,NNW,343,1.0,1.0,70,0.00,,,0.00,Wunderground v.1.15,2013-06-30 02:50:00,
2013-06-29 19:55:00,73.1,63.1,30.00,NNW,343,2.0,2.0,71,0.00,,,0.00,Wunderground v.1.15,2013-06-30 02:55:00,
2013-06-29 20:00:00,72.6,62.7,30.00,NW,321,2.0,4.0,71,0.00,,,0.00,Wunderground v.1.15,2013-06-30 03:00:00,
2013-06-29 20:05:00,72.3,62.8,30.00,NNW,348,2.0,4.0,72,0.00,,,0.00,Wunderground v.1.15,2013-06-30 03:05:00,
2013-06-29 20:10:00,72.1,62.6,30.00,North,351,2.0,2.0,72,0.00,,,0.00,Wunderground v.1.15,2013-06-30 03:10:00,
2013-06-29 20:15:00,72.0,62.5,29.99,NNE,32,1.0,2.0,72,0.00,,,0.00,Wunderground v.1.15,2013-06-30 03:15:00,
2013-06-29 20:20:00,71.3,62.2,29.99,North,5,2.0,5.0,73,0.00,,,0.00,Wunderground v.1.15,2013-06-30 03:20:00,
2013-06-29 20:25:00,70.7,62.0,30.00,North,5,3.0,5.0,74,0.00,,,0.00,Wunderground v.1.15,2013-06-30 03:25:00,
2013-06-29 20:30:00,70.5,61.8,30.00,North,351,2.0,2.0,74,0.00,,,0.00,Wunderground v.1.15,2013-06-30 03:30:00,
2013-06-29 20:35:00,70.3,61.6,29.99,NE,45,1.0,2.0,74,0.00,,,0.00,Wunderground v.1.15,2013-06-30 03:35:00,
2013-06-29 20:40:00,69.8,61.5,29.99,NNE,27,1.0,1.0,75,0.00,,,0.00,Wunderground v.1.15,2013-06-30 03:40:00,
2013-06-29 20:45:00,69.3,61.0,30.00,NE,42,1.0,1.0,75,0.00,,,0.00,Wunderground v.1.15,2013-06-30 03:45:00,
2013-06-29 20:50:00,68.6,60.4,30.00,North,355,1.0,1.0,75,0.00,,,0.00,Wunderground v.1.15,2013-06-30 03:50:00,
2013-06-29 20:55:00,67.7,60.2,30.00,NW,313,2.0,2.0,77,0.00,,,0.00,Wunderground v.1.15,2013-06-30 03:55:00,
2013-06-29 21:00:00,67.1,60.0,30.00,NW,312,2.0,2.0,78,0.00,,,0.00,Wunderground v.1.15,2013-06-30 04:00:00,
2013-06-29 21:05:00,66.4,60.0,30.00,NNW,346,2.0,2.0,80,0.00,,,0.00,Wunderground v.1.15,2013-06-30 04:05:00,
2013-06-29 21:10:00,65.9,59.9,30.00,NW,319,2.0,2.0,81,0.00,,,0.00,Wunderground v.1.15,2013-06-30 04:10:00,
2013-06-29 21:15:00,65.6,60.0,30.01,NNW,334,2.0,3.0,82,0.00,,,0.00,Wunderground v.1.15,2013-06-30 04:15:00,
2013-06-29 21:20:00,65.3,60.0,30.01,NNW,327,2.0,2.0,83,0.00,,,0.00,Wunderground v.1.15,2013-06-30 04:20:00,
2013-06-29 21:25:00,65.2,60.2,30.01,NW,319,3.0,3.0,84,0.00,,,0.00,Wunderground v.1.15,2013-06-30 04:25:00,
2013-06-29 21:30:00,65.1,60.1,30.01,NW,317,3.0,3.0,84,0.00,,,0.00,Wunderground v.1.15,2013-06-30 04:30:00,
2013-06-29 21:35:00,65.0,60.0,30.01,NNW,327,2.0,3.0,84,0.00,,,0.00,Wunderground v.1.15,2013-06-30 04:35:00,
2013-06-29 21:40:00,64.7,60.1,30.01,NW,316,2.0,3.0,85,0.00,,,0.00,Wunderground v.1.15,2013-06-30 04:40:00,
2013-06-29 21:50:00,64.6,60.0,30.01,North,360,3.0,3.0,85,0.00,,,0.00,Wunderground v.1.15,2013-06-30 04:50:00,
2013-06-29 21:55:00,64.3,60.0,30.01,NNE,19,2.0,3.0,86,0.00,,,0.00,Wunderground v.1.15,2013-06-30 04:55:00,
2013-06-29 22:00:00,64.1,59.8,30.01,NNE,16,1.0,2.0,86,0.00,,,0.00,Wunderground v.1.15,2013-06-30 05:00:00,
2013-06-29 22:05:00,63.9,60.0,30.01,North,9,1.0,2.0,87,0.00,,,0.00,Wunderground v.1.15,2013-06-30 05:05:00,
2013-06-29 22:10:00,63.7,59.8,30.01,NNW,340,1.0,1.0,87,0.00,,,0.00,Wunderground v.1.15,2013-06-30 05:10:00,
2013-06-29 22:15:00,63.5,59.6,30.01,NNE,24,1.0,3.0,87,0.00,,,0.00,Wunderground v.1.15,2013-06-30 05:15:00,
2013-06-29 22:20:00,63.4,59.8,30.01,NNE,19,2.0,2.0,88,0.00,,,0.00,Wunderground v.1.15,2013-06-30 05:20:00,
2013-06-29 22:25:00,63.3,59.7,30.01,NNE,22,1.0,2.0,88,0.00,,,0.00,Wunderground v.1.15,2013-06-30 05:25:00,
2013-06-29 22:30:00,63.3,59.7,30.01,NNW,340,0.0,1.0,88,0.00,,,0.00,Wunderground v.1.15,2013-06-30 05:30:00,
2013-06-29 22:35:00,63.1,59.5,30.01,NNW,340,0.0,1.0,88,0.00,,,0.00,Wunderground v.1.15,2013-06-30 05:35:00,
2013-06-29 22:40:00,63.1,59.5,30.01,NW,311,0.0,0.0,88,0.00,,,0.00,Wunderground v.1.15,2013-06-30 05:40:00,
2013-06-29 22:45:00,63.1,59.8,30.01,NW,311,0.0,2.0,89,0.00,,,0.00,Wunderground v.1.15,2013-06-30 05:45:00,
2013-06-29 22:55:00,63.4,60.4,30.01,WNW,290,2.0,2.0,90,0.00,,,0.00,Wunderground v.1.15,2013-06-30 05:55:00,
2013-06-29 23:00:00,63.2,59.9,30.01,WNW,291,1.0,2.0,89,0.00,,,0.00,Wunderground v.1.15,2013-06-30 06:00:00,
2013-06-29 23:05:00,63.0,59.7,30.01,North,5,1.0,2.0,89,0.00,,,0.00,Wunderground v.1.15,2013-06-30 06:05:00,
2013-06-29 23:10:00,62.9,59.6,30.00,NW,321,1.0,1.0,89,0.00,,,0.00,Wunderground v.1.15,2013-06-30 06:10:00,
2013-06-29 23:15:00,62.7,59.4,30.00,NW,322,0.0,1.0,89,0.00,,,0.00,Wunderground v.1.15,2013-06-30 06:15:00,
2013-06-29 23:20:00,62.6,59.6,30.00,NW,322,0.0,0.0,90,0.00,,,0.00,Wunderground v.1.15,2013-06-30 06:20:00,
2013-06-29 23:25:00,62.6,59.6,30.01,NW,322,0.0,0.0,90,0.00,,,0.00,Wunderground v.1.15,2013-06-30 06:25:00,
2013-06-29 23:30:00,62.7,59.7,30.00,NW,322,1.0,1.0,90,0.00,,,0.00,Wunderground v.1.15,2013-06-30 06:30:00,
2013-06-29 23:35:00,62.8,60.1,30.00,NW,315,1.0,3.0,91,0.00,,,0.00,Wunderground v.1.15,2013-06-30 06:35:00,
2013-06-29 23:40:00,62.9,60.2,30.01,NW,311,1.0,1.0,91,0.00,,,0.00,Wunderground v.1.15,2013-06-30 06:40:00,
2013-06-29 23:45:00,62.9,60.2,30.00,WNW,288,2.0,2.0,91,0.00,,,0.00,Wunderground v.1.15,2013-06-30 06:45:00,
2013-06-29 23:50:00,62.9,60.2,30.00,West,277,3.0,3.0,91,0.00,,,0.00,Wunderground v.1.15,2013-06-30 06:50:00,
2013-06-29 23:55:00,62.9,60.2,30.00,West,273,2.0,3.0,91,0.00,,,0.00,Wunderground v.1.15,2013-06-30 06:55:00,